Capitol Logistics 261


KMCI
Kansas City International Airport
Kansas City, Missouri, US
KBOS
Logan International Airport
Boston, Massachusetts, US

Route Details

Aircraft Information
Primary: Boeing 767-300BDSF
Backup: Boeing 757-200SF
Route Data
Distance: 1090nm
Sched. Duration: 2h 39m
Avg. Duration: 2h 41m (+2m)
Times Flown: 4
Recm'd Route: LAKES2 SPI ROD KLYNE Q29 JHW Q82 PONCT JFUND2
Planned Altitude: 35,000ft
Origin Wx: KMCI 202253Z 00000KT 5SM BR BKN009 OVC060 08/06 A2998 RMK AO2 SLP156 T00830061 $
Dest. Wx: KBOS 202321Z 12005KT 10SM SCT022 BKN180 16/14 A3025 RMK AO2 T01610144
Notes: METROAIR CARGO SUPPORT

Financial History
Total Freight: 291,000lbs
Average Load: 72,750lbs/flt
Fuel Used: 111,582lbs
Avg. Fuel Used: 27,896lbs/flt
Fuel Expense: $122,740
Avg. Fuel Expense: $30,685
Avg. Fuel Cost: $1.10/lbs
Total Gross Income: $400,387
Pilot Pay: $886
Total Expenses: $43,450
Total Revenue: $231,242
Average Revenue: $100,096.80